Estación meteorológica de Calldetenes (Osona, Plana de Vic)

Consulta los datos en tiempo real de la estación meteorológica de Calldetenes





Hora UTC 02:50
Temperatura 18.0 ºC
Suelo 15 cm 17.8 ºC
Humedad 92.2 %
Presión 1022.9 hPa
Pluja 0.0 mm
Velocidad viento 0.0 km/h
Dirección viento SSE
Radiación solar 0.1 W/m²

Webcam

Datos diarios 2026-09-04



Hora UTC (invierno +1h; verano +2h)
Temperatura (ºC) Humedad (%) Presión (hPa) Velocidad viento (km/h) Precipitación (mm) Radiación solar (W/m²)
Hora UTC Aire Suelo 15 cm Humedad Presión Vel. Dir. Vel. Max Dir. Intent. máx 5 min. Rad. Sol.
00:05 19.5 19.4 87.4 1023.7 3.6 SE 3.6 SE 0.0 0.1
00:10 19.4 19.4 87.2 1023.7 3.9 ESE 5.3 SE 0.0 0.1
00:15 19.3 19.4 87.6 1023.7 3.6 ESE 5.3 ESE 0.0 0.1
00:20 19.3 19.3 87.6 1023.7 2.8 SE 5.3 ESE 0.0 0.1
00:25 19.1 19.2 87.3 1023.6 1.8 ESE 3.5 ESE 0.0 0.1
00:30 19.0 19.1 89.1 1023.6 3.8 ESE 5.6 ESE 0.0 0.1
00:35 19.1 19.0 89.6 1023.6 2.3 ESE 4.6 ESE 0.0 0.1
00:40 19.0 19.1 88.8 1023.6 2.1 ESE 4.6 ESE 0.0 0.1
00:45 18.9 19.0 88.5 1023.5 3.1 ESE 4.9 ESE 0.0 0.1
00:50 18.9 18.9 88.6 1023.5 2.8 ESE 4.6 ESE 0.0 0.1
00:55 18.8 18.8 89.2 1023.4 3.0 SE 4.9 ESE 0.0 0.1
01:00 18.8 18.7 89.9 1023.4 0.7 SSE 2.5 SE 0.0 0.1
01:05 18.7 18.7 90.0 1023.3 0.0 NNE 0.0 S 0.0 0.1
01:10 18.7 18.6 90.1 1023.3 0.0 NNE 0.0 SSE 0.0 0.1
01:15 18.5 18.5 89.9 1023.2 0.0 SE 2.1 SE 0.0 0.1
01:20 18.5 18.5 90.8 1023.2 1.6 SE 3.2 SE 0.0 0.1
01:25 18.5 18.5 90.5 1023.2 0.6 SSW 2.5 SSW 0.0 0.1
01:30 18.5 18.4 91.6 1023.2 1.2 SSW 2.8 S 0.0 0.1
01:35 18.6 18.3 91.8 1023.2 0.8 SW 2.8 SW 0.0 0.1
01:40 18.7 18.4 91.6 1023.2 2.3 S 3.9 SSW 0.0 0.1
01:45 18.7 18.4 90.8 1023.2 2.1 SE 3.5 ESE 0.0 0.1
01:50 18.6 18.4 90.5 1023.2 2.6 ESE 3.9 ESE 0.0 0.1
01:55 18.4 18.4 90.0 1023.1 2.6 ESE 4.6 ESE 0.0 0.1
02:00 18.4 18.3 90.9 1023.1 2.7 ESE 4.6 ESE 0.0 0.1
02:05 18.2 18.2 89.3 1023.1 1.1 SE 2.8 SE 0.0 0.1
02:10 18.1 18.0 91.0 1023.1 0.6 SE 2.1 SE 0.0 0.1
02:15 18.1 17.9 91.7 1023.0 1.8 SE 3.5 ESE 0.0 0.1
02:20 18.0 17.9 91.2 1023.0 0.8 SE 3.2 ESE 0.0 0.1
02:25 17.8 17.7 92.0 1023.0 4.5 ESE 6.7 ESE 0.0 0.1
02:30 18.0 17.7 93.2 1023.0 4.1 ESE 6.4 SE 0.0 0.1
02:35 18.0 17.8 92.7 1023.0 2.3 ESE 4.9 ESE 0.0 0.1
02:40 18.0 17.8 92.8 1023.0 3.9 ESE 5.6 ESE 0.0 0.1
02:45 18.1 17.8 93.2 1022.9 1.7 SE 3.9 ESE 0.0 0.1
02:50 18.0 17.8 92.2 1022.9 0.0 SSE 1.1 SSE 0.0 0.1
Máxima 19.5 19.4 93.2 1023.7 4.5 ESE 6.7 ESE 0.0 0.1
Mínima 17.8 17.7 87.2 1022.9
Total 0.0